Location: Davayat
(45.9471°N, 3.1105°E)
Time: 18:13:51
(UTC+00:00)

Cosmos 1606 - Pass Details

Date: 01 December 2020
Orbit: 503 x 527 km, 82.5° (Epoch: 22 January)

Event Time Altitude Azimuth Distance (km) Brightness Sun altitude
Rises 16:47:38 0° 191° (S) 2,652 6.8 -7.5°
Reaches altitude 10° 16:49:46 10° 192° (SSW) 1,767 5.9 -7.9°
Maximum altitude 16:53:39 77° 278° (W) 546 2.9 -8.5°
Drops below altitude 10° 16:57:33 10° 6° (N) 1,776 5.1 -9.1°
Sets 16:59:42 0° 8° (N) 2,666 6.0 -9.5°
